Preview of NWS' New Version of Forecast
This preview is not operational and should not be used for support decisions.

Regional Weather Roundup (RWR)

Issued by National Weather Service (NWS)

                            
000
ASUS46 KSEW 221210
RWRWA 

WASHINGTON REGIONAL WEATHER ROUNDUP
NATIONAL WEATHER SERVICE SEATTLE WA
500 AM PDT MON JUL 22 2019

NOTE:"FAIR" INDICATES FEW OR NO CLOUDS BELOW 12,000 FEET WITH NO 
SIGNIFICANT WEATHER AND/OR OBSTRUCTIONS TO VISIBILITY.

WAZ507-509-555>559-221300-
SEATTLE, TACOMA, EVERETT, AND VICINITY
  
CITY           SKY/WX    TMP DP  RH WIND       PRES   REMARKS
EVERETT        CLEAR     60  43  53 CALM      29.99S                  
6HR MIN TEMP:  59; 6HR MAX TEMP:  62;                                

BOEING FIELD   CLEAR     62  49  62 SW3       29.98F                  
6HR MIN TEMP:  61; 6HR MAX TEMP:  73;                                

RENTON         CLEAR     60  53  77 CALM      29.98S                  
6HR MIN TEMP:  60; 6HR MAX TEMP:  72;                                

SEATAC AIRPORT PTCLDY    59  50  72 SW6       29.99S                  
6HR MIN TEMP:  59; 6HR MAX TEMP:  70;                                

JBLM-MCCHORD   CLEAR     56  52  88 S3        30.00R                  
6HR MIN TEMP:  56; 6HR MAX TEMP:  70;                                

PUYALLUP       FAIR      54  52  94 CALM      30.00S                  
BREMERTON      CLEAR     51  49  92 CALM      29.99S                  
6HR MIN TEMP:  51; 6HR MAX TEMP:  64;                                

JBLM-FT LEWIS  CLEAR     56  53  90 SE5       29.99R                  
6HR MIN TEMP:  56; 6HR MAX TEMP:  68;                                

TACOMA NARROWS CLEAR     56  51  84 CALM      29.99F                  
6HR MIN TEMP:  56; 6HR MAX TEMP:  68;                                

$$
 
WAZ001-503-506-510-514-515-221300-
NORTH INTERIOR
  
CITY           SKY/WX    TMP DP  RH WIND       PRES   REMARKS
BELLINGHAM     CLEAR     60  51  72 S9        29.95R                  
6HR MIN TEMP:  60; 6HR MAX TEMP:  66;                                

FRIDAY HARBOR  CLEAR     50  48  93 CALM      29.96S                  
6HR MIN TEMP:  49; 6HR MAX TEMP:  53;                                

EASTSOUND      CLEAR     59  52  77 VRB6      29.93S                  
PORT ANGELES   CLEAR     56  46  69 W7        29.98S                  
6HR MIN TEMP:  56; 6HR MAX TEMP:  62;                                

EDIZ HOOK      FAIR      55  49  79 W9        29.98R                  
6HR MIN TEMP:  55; 6HR MAX TEMP:  60;                                

PORT TOWNSEND  FAIR      48  46  93 CALM      29.98S                  
NAS WHIDBEY    PTCLDY    59  52  77 SW12      30.02R                  
6HR MIN TEMP:  58; 6HR MAX TEMP:  60;                                

ARLINGTON        N/A     53  50  89 N3        29.99S                  
6HR MIN TEMP:  51; 6HR MAX TEMP:  62;                                

BURLINGTON     CLEAR     55  52  88 SE8       29.98S                  
$$
 
WAZ020-022-039-040-504-511-512-221300-
SOUTHWEST INTERIOR
  
CITY           SKY/WX    TMP DP  RH WIND       PRES   REMARKS
SHELTON        CLOUDY    57  52  83 W15       29.97R                  
6HR MIN TEMP:  57; 6HR MAX TEMP:  63;                                

OLYMPIA        CLEAR     54  50  86 CALM      29.99S                  
6HR MIN TEMP:  53; 6HR MAX TEMP:  63;                                

CHEHALIS       FAIR      55  54  94 CALM      30.01S                  
KELSO          CLEAR     58  55  90 CALM      30.03R                  
6HR MIN TEMP:  58; 6HR MAX TEMP:  64;                                

VANCOUVER      CLEAR     61  49  64 CALM      30.00R                  
6HR MIN TEMP:  61; 6HR MAX TEMP:  70;                                

SCAPPOOSE, OR  CLEAR     55  50  83 CALM      29.99S                  
6HR MIN TEMP:  54; 6HR MAX TEMP:  67;                                

PORTLAND, OR   PTCLDY    62  50  64 N3        30.01R                  
6HR MIN TEMP:  62; 6HR MAX TEMP:  71;                                

$$
 
WAZ021-516-517-221300-
WASHINGTON COAST
  
CITY           SKY/WX    TMP DP  RH WIND       PRES   REMARKS
FORKS          PTCLDY    49  47  93 CALM      30.01S                  
6HR MIN TEMP:  49; 6HR MAX TEMP:  55;                                

HOQUIAM        CLEAR     59  58  96 W3        30.02S                  
6HR MIN TEMP:  58; 6HR MAX TEMP:  60;                                

ASTORIA, OR    CLEAR     53  51  93 SE5       30.02S                  
6HR MIN TEMP:  53; 6HR MAX TEMP:  58;                                

$$
 
WAZ019-023-024-040-567>569-221300-
CASCADE MOUNTAINS AND COLUMBIA GORGE
  
CITY           SKY/WX    TMP DP  RH WIND       PRES   REMARKS
STAMPEDE PASS  PTCLDY    60  42  51 SW3       30.07S                  
6HR MIN TEMP:  59; 6HR MAX TEMP:  66;                                

TROUTDALE, OR  LGT RAIN  62  53  72 VRB5      30.00R                  
6HR MIN TEMP:  61; 6HR MAX TEMP:  71; 6HR PCP: TRACE;                

HOOD RIVER, OR MOSUNNY   61  52  72 CALM      29.94S                  
THE DALLES, OR PTCLDY    70  54  56 NW15      29.89R                  
6HR MIN TEMP:  69; 6HR MAX TEMP:  78;                                

$$

WAZ026-027-041>044-520-521-221300-
EAST SLOPES
  
CITY           SKY/WX    TMP DP  RH WIND       PRES   REMARKS
OMAK           PTCLDY    65  39  38 N13       29.97F                  
6HR MIN TEMP:  56; 6HR MAX TEMP:  72;                                

WENATCHEE      PTCLDY    66  44  45 W13       29.95R                  
6HR MIN TEMP:  64; 6HR MAX TEMP:  75;                                

ELLENSBURG     PTCLDY    57  45  64 NE3       29.96R                  
6HR MIN TEMP:  56; 6HR MAX TEMP:  66;                                

YAKIMA         PTCLDY    57  46  66 W8        29.92S                  
6HR MIN TEMP:  57; 6HR MAX TEMP:  67;                                

SUNNYSIDE ARPT CLOUDY    57  53  84 CALM      29.88F                  
6HR MIN TEMP:  55; 6HR MAX TEMP:  63;                                

YAKIMA TC      FAIR      64  35  33 NE5       29.91S                  
6HR MIN TEMP:  61; 6HR MAX TEMP:  70;                                

$$

WAZ028-034-035-221300-
COLUMBIA BASIN
  
CITY           SKY/WX    TMP DP  RH WIND       PRES   REMARKS
EPHRATA        PTCLDY    72  35  25 NW12      29.90S                  
6HR MIN TEMP:  69; 6HR MAX TEMP:  75;                                

MOSES LAKE     PTCLDY    66  40  38 N8        29.91S                  
6HR MIN TEMP:  66; 6HR MAX TEMP:  72;                                

PASCO          CLOUDY    68  51  54 NE3       29.87R                  
6HR MIN TEMP:  61; 6HR MAX TEMP:  77;                                

RICHLAND ARPT  CLOUDY    69  48  47 CALM      29.86                   
6HR MIN TEMP:  66; 6HR MAX TEMP:  78;                                

HERMISTON, OR  CLOUDY    66  45  46 W3        29.87R                  
6HR MIN TEMP:  63; 6HR MAX TEMP:  72;                                

$$

WAZ036>038-221300-
NORTHEAST WASHINGTON
  
CITY           SKY/WX    TMP DP  RH WIND       PRES   REMARKS
SPOKANE GEIGER PTCLDY    63  43  48 NE7       29.99F                  
6HR MIN TEMP:  63; 6HR MAX TEMP:  75;                                

SPOKANE FELTS  PTCLDY    57  48  72 CALM      29.99S                  
6HR MIN TEMP:  57; 6HR MAX TEMP:  68;                                

FAIRCHILD AFB  PTCLDY    64  42  45 NE9       29.98F                  
6HR MIN TEMP:  61; 6HR MAX TEMP:  70;                                

COEURDALENE,ID PTCLDY    63  46  54 NE12      30.01S                  
6HR MIN TEMP:  59; 6HR MAX TEMP:  68;                                

DEER PARK      CLEAR     65  42  43 MISG      30.01R                  
6HR MIN TEMP:  59; 6HR MAX TEMP:  65;                                

$$

WAZ029>033-221300-
SOUTHEAST WASHINGTON
  
CITY           SKY/WX    TMP DP  RH WIND       PRES   REMARKS
PULLMAN        CLOUDY    72  38  29 E13       29.95F                  
6HR MIN TEMP:  57; 6HR MAX TEMP:  73;                                

LEWISTON, ID   CLOUDY    70  44  39 E12       29.90R                  
6HR MIN TEMP:  67; 6HR MAX TEMP:  75;                                

WALLA WALLA    LGT RAIN  72  45  37 E8        29.87F                  
6HR MIN TEMP:  70; 6HR MAX TEMP:  77; 6HR PCP: TRACE;                

PENDLETON, OR  CLOUDY    68  43  40 SE5       29.90S                  
6HR MIN TEMP:  63; 6HR MAX TEMP:  77;                                

$$